Location: Unspecified
(35.7250°N, 0.0000°E)
Time: 02:10:13
(UTC+00:00)

Vanguard 1 - Pass Details

Date: 27 June 2019
Orbit: 653 x 3830 km, 34.3° (Epoch: 22 July)

Event Time Altitude Azimuth Distance (km) Brightness Sun altitude
Rises 22:12:40 0° 207° (SSW) 7,551 14.3 -25.4°
Reaches altitude 10° 22:18:18 10° 200° (SSW) 6,757 13.9 -26.0°
Enters shadow 22:23:55 20° 190° (S) 6,034 13.6 -26.5°
Exits shadow 22:35:02 36° 155° (SSE) 5,006 13.0 -27.4°
Maximum altitude 22:38:09 37° 142° (SE) 4,875 13.0 -27.6°
Drops below altitude 10° 22:54:55 10° 84° (E) 5,831 13.9 -28.8°
Sets 22:59:11 0° 76° (ENE) 6,472 14.2 -29.1°
